Regional Weather Roundup
Issued by NWS

Home | Current Version | Previous Version | Text Only | Print | Product List | Glossary On
Versions: 1 2 3 4 5 6 7 8 9 10 11 12 13 14 15 16 17 18 19 20 21 22 23 24 25 26 27
000
ASUS43 KDMX 240407
RWRIA

WEATHER ROUNDUP FOR IOWA
NATIONAL WEATHER SERVICE DES MOINES IA
1100 PM CDT THU OCT 23 2014

NOTE: "FAIR" INDICATES FEW OR NO CLOUDS BELOW 12,000 FEET WITH NO
SIGNIFICANT WEATHER AND/OR OBSTRUCTIONS TO VISIBILITY.

* - THESE STATIONS ARE NOT NWS STATIONS...THUS NOT UNDER NWS
QUALITY CONTROL.  THEY ALSO DO NOT REPORT WEATHER SUCH
AS PRECIPITATION OR FOG.

IAZ001>003-012>014-020>022-031>034-043>046-240500-
   NORTHWEST IOWA

CITY           SKY/WX    TMP DP  RH WIND       PRES   REMARKS
CARROLL *      CLEAR     46  43  87 CALM      30.01S
CHEROKEE *     MOCLDY    48  46  93 S3        29.99S
DENISON *      CLEAR     46  45  93 CALM      29.99S
LE MARS *      CLEAR     52  46  82 S5        29.98S
ORANGE CITY *  CLEAR     54  45  71 S5        29.97S
SHELDON *      CLEAR     52  45  76 S8        29.96F
SIOUX CITY     PTCLDY    50  46  86 E7        29.98S
SPENCER        PTCLDY    48  42  80 S8        29.98F
STORM LAKE *   CLEAR     54  43  66 S7        30.01S
$$

IAZ055>058-069>071-079>083-090>094-240500-
   SOUTHWEST IOWA

CITY           SKY/WX    TMP DP  RH WIND       PRES   REMARKS
ATLANTIC *     CLEAR     46  45  93 CALM      30.02F
AUDUBON *      CLEAR     45  39  81 CALM      30.03F
CLARINDA *     CLEAR     46  46 100 CALM      30.06S
COUNCIL BLFS * CLEAR     57  50  77 S8        30.00F
CRESTON *      CLEAR     54  52  94 S8        30.05F
HARLAN  *      CLEAR     46  46 100 CALM      30.05F
LAMONI         FOG       56  56 100 SW9       30.06S VSB 1/4
RED OAK *      CLEAR     48  48 100 CALM      30.03F
SHENANDOAH *     N/A     50  50 100 CALM      30.04F
$$

IAZ047>049-059>061-072>074-084-240500-
   CENTRAL IOWA

CITY           SKY/WX    TMP DP  RH WIND       PRES   REMARKS
AMES           FOG       48  47  96 CALM      30.03S VSB 1/4
ANKENY *       FOG       50  50 100 SE3       30.03F VSB 0
CHARITON *     FOG       50  50 100 S6        30.05F VSB 1/4
DES MOINES     CLEAR     55  53  93 S9        30.03F FOG
GRINNELL*      CLEAR     52  50  93 S3        30.05F FOG
KNOXVILLE *    CLEAR     54  52  94 S8        30.04S FOG
MARSHALLTOWN   FOG       44  43  96 SE5       30.03F VSB 1/4
PELLA *          N/A     55  54  94 S3        30.06F FOG
PERRY *          N/A     48  46  93 S5        30.02F
$$

IAZ004>006-015-016-023>025-035-036-240500-
   NORTH CENTRAL IOWA

CITY           SKY/WX    TMP DP  RH WIND       PRES   REMARKS
ALGONA *       CLEAR     48  43  81 S8        30.01S
CLARION *      CLEAR     48  46  93 S7        30.02R
ESTHERVILLE    CLEAR     46  41  82 S9        29.99S
FORT DODGE *   CLEAR     45  39  81 CALM      30.02S
MASON CITY     CLEAR     44  44 100 S8        30.03S FOG
FOREST CITY *  CLEAR     43  43 100 CALM      30.01S
IOWA FALLS *     N/A     52  50  93 S7        30.04F FOG
$$

IAZ007>011-017>019-026>030-037>042-050>054-066-240500-
   NORTHEAST IOWA

CITY           SKY/WX    TMP DP  RH WIND       PRES   REMARKS
CEDAR RAPIDS   FOG       43  43 100 S3        30.05S VSB 1/4
CHARLES CITY * FOG       46  46 100 SE6       30.04S VSB 0
CLINTON *      CLOUDY    52  48  87 CALM      30.08S
DECORAH *      FOG       50  50 100 S3        30.03S VSB 1/4
DUBUQUE        CLOUDY    51  50  96 CALM      30.05F
MONTICELLO *   FOG       48  48 100 CALM      30.05F VSB 0
OELWEIN *      FOG       43  43 100 SE5       30.05S VSB 0
WATERLOO       FOG       48  48 100 SE3       30.04S VSB 1/4
$$

IAZ064-065-067-068-078-240500-
   EAST CENTRAL IOWA

CITY           SKY/WX    TMP DP  RH WIND       PRES   REMARKS
DAVENPORT      CLOUDY    54  48  80 W5        30.06S
IOWA CITY      FOG       46  46 100 CALM      30.07S VSB 1/4
MT. PLEASANT * PTCLDY    50  48  93 S3        30.07S
MUSCATINE *    PTCLDY    52  48  87 CALM      30.06S
QUAD CITIES    CLOUDY    56  49  77 W5        30.05F
$$

IAZ062-063-075>077-085>089-095>099-240500-
   SOUTHEAST IOWA

CITY           SKY/WX    TMP DP  RH WIND       PRES   REMARKS
BURLINGTON     CLOUDY    55  52  89 SW6       30.07R
FAIRFIELD *    MOCLDY    46  46 100 SW3       30.07S
FORT MADISON * MOCLDY    55  54  94 S5        30.08R
KEOKUK *       PTCLDY    54  52  94 S7        30.06S
OSKALOOSA *    FOG       45  45 100 CALM      30.06F VSB 1/4
CENTERVILLE *  FOG       52  52 100 S3        30.09S VSB 1/4
OTTUMWA        FOG       43  42  97 S5        30.06S VSB 1/4
WASHINGTON *   FOG       50  50 100 CALM      30.06F VSB 0
$$

ABBREVIATIONS USED IN REMARKS
   TC - TEMPERATURES IN CELSIUS
  WCI - WIND CHILL INDEX
   HX - HEAT INDEX
  VSB - VISIBILITY
$$




USA.gov is the U.S. government's official web portal to all federal, state and local government web resources and services.